Location: Arpaise
(41.0333°N, 14.7333°E)
Time: 07:28:30
(UTC+00:00)

Meteor 1-10 Rocket - Pass Details

Date: 05 July 2020
Orbit: 835 x 911 km, 81.3° (Epoch: 05 August)

Event Time Altitude Azimuth Distance (km) Brightness Sun altitude
Rises 23:26:43 0° 354° (N) 3,412 8.6 -26.1°
Reaches altitude 10° 23:29:12 10° 359° (N) 2,466 7.6 -26.1°
Maximum altitude 23:34:41 57° 77° (ENE) 980 4.5 -26.0°
Enters shadow 23:35:41 50° 117° (ESE) 1,062 4.5 -25.9°
